Location: Seattle
(47.6064°N, 122.3308°W)
Time: 00:24:44
(UTC-08:00)

Tiros 1 - Pass Details

Date: 03 December 2020
Orbit: 630 x 663 km, 48.4° (Epoch: 28 January)

Event Time Altitude Azimuth Distance (km) Brightness Sun altitude
Rises 20:25:40 0° 281° (W) 2,985 11.4 -40.6°
Enters shadow 20:28:42 - 260° (W) 2,129 10.4 -41.1°
Reaches altitude 10° 20:29:01 10° 257° (WSW) 2,062 - -41.2°
Maximum altitude 20:31:29 14° 225° (SW) 1,789 - -41.6°
Drops below altitude 10° 20:33:57 10° 193° (SSW) 2,045 - -42.0°
Sets 20:37:16 0° 169° (S) 2,942 - -42.6°
